Content
SEND FEEDBACK

Daily
Averages
Monthly
Summary
United States of America

WILMINGTON, NORTH CAROLINA


Home > North America > United States > North Carolina
Elevation: 72 feet     Latitude: 34 16N     Longitude: 077 54W

WEATHER
 
SELECT A DAY
Number of Records: 211,656;   Date Range: 1/1/95 - 9/29/14
 
SHARE

PRINT THIS DATA

[ ← Previous Day ]
WEATHER ALMANAC - JUNE 17, 2014
[ Next Day → ]
[ °C ]   °F
Weather ElementAverageHighLow
Temperature81.8 °F91.9 °F (1:53 pm)73 °F (3:53 am)
Dewpoint68.7 °F72 °F (7:53 am)64.9 °F (7:53 pm)
Humidity66.3 %91 % (6:53 am)44 % (1:53 pm)
Barometer30.15 in30.20 in (9:53 am)30.11 in (3:53 pm)
Wind Speed7 mph13.8 mph (4:53 pm)
Weather ElementAverage
Visibility9.9 mi
Wind DirectionS (180.4 °)

Weather ElementTotal
Precipitation---
Cooling Degree Days17.5 (Base 65)
Growing Degree Days32.5 (Base 50)
Averaged from 23 records on June 17, 2014
WEATHER CONDITIONS BREAKOUT
WIND DIRECTION BREAKOUT
WEATHER BY HOUR - JUNE 17, 2014
[ °C ]   °F
Local TimeTemperatureDewpointHumidityBarometerVisibilityWind DirectionWind SpeedGust SpeedPrecipitationEventsConditions
1:53 AM75.9 °F69.1 °F79 %30.15 in10.0 miSW (220°)6.9 mphClear
2:53 AM73.9 °F69.1 °F85 %30.14 in9.0 miSW (230°)4.6 mphClear
3:53 AM73.0 °F69.1 °F87 %30.14 in9.0 miSSW (200°)3.5 mphClear
4:53 AM73.0 °F69.1 °F87 %30.14 in10.0 miCalmClear
5:53 AM73.0 °F69.1 °F87 %30.16 in10.0 miCalmClear
6:53 AM73.9 °F71.1 °F91 %30.17 in9.0 miCalmClear
7:53 AM77.0 °F72.0 °F84 %30.18 in10.0 miWest (270°)8.1 mphClear
8:53 AM81.0 °F71.1 °F72 %30.18 in10.0 miWest (270°)6.9 mphClear
9:53 AM84.9 °F68.0 °F57 %30.20 in10.0 miWest (270°)8.1 mphClear
10:53 AM87.1 °F68.0 °F53 %30.19 in10.0 miWest (270°)6.9 mphClear
11:53 AM89.1 °F66.0 °F46 %30.18 in10.0 miWSW (250°)6.9 mphClear
12:53 PM91.0 °F66.9 °F45 %30.17 in10.0 miVariable6.9 mphClear
1:53 PM91.9 °F66.9 °F44 %30.14 in10.0 miSSW (210°)9.2 mphClear
2:53 PM90.0 °F70.0 °F52 %30.13 in10.0 miSouth (170°)6.9 mphMostly Cloudy
3:53 PM91.9 °F70.0 °F48 %30.11 in10.0 miSouth (180°)12.7 mphClear
4:53 PM91.0 °F70.0 °F50 %30.11 in10.0 miSouth (190°)13.8 mphClear
5:53 PM87.1 °F70.0 °F57 %30.12 in10.0 miSSW (200°)11.5 mphClear
6:53 PM84.9 °F68.0 °F57 %30.12 in10.0 miSouth (180°)10.4 mphClear
7:53 PM82.0 °F64.9 °F56 %30.13 in10.0 miSSW (210°)9.2 mphClear
8:53 PM79.0 °F66.9 °F66 %30.16 in10.0 miSW (230°)10.4 mphClear
9:53 PM77.0 °F66.9 °F71 %30.15 in10.0 miSouth (180°)5.8 mphClear
10:53 PM77.0 °F66.9 °F71 %30.14 in10.0 miSSW (200°)5.8 mphClear
11:53 PM77.0 °F70.0 °F79 %30.13 in10.0 miSW (220°)6.9 mphClear
Hourly data recorded from KILM, located miles away from Wilmington, North Carolina







STORIES FROM OUR PARTNERS